Estherville, IA

3:37 PM CDT on April 20, 2018 (GMT -0500)
Estherville Municipal

Weather History for KEST - March, 2013

Change the Weather History Date:

Monday, March 4, 2013

  Actual Average Record
Temperature  
Mean Temperature 27 °F 27 °F  
Max Temperature 29 °F 36 °F 66 °F (1983)
Min Temperature 24 °F 19 °F -10 °F (1960)
Degree Days  
Heating Degree Days 38 38  
Month to date heating degree days 176 154  
Since 1 July heating degree days 5815 6069  
Cooling Degree Days 0 0  
Month to date cooling degree days 0 0  
Year to date cooling degree days 0 0  
Moisture  
Dew Point 24 °F    
Average Humidity 94    
Maximum Humidity 100    
Minimum Humidity 88    
Precipitation  
Precipitation 0.06 in 0.02 in 1.51 in (1985)
Month to date precipitation 0.07 0.09  
Sea Level Pressure  
Sea Level Pressure 29.87 in    
Wind  
Wind Speed 15 mph (SE)    
Max Wind Speed 24 mph    
Max Gust Speed 33 mph    
Visibility 2 miles    
Events Rain , Snow    
T = Trace of Precipitation, MM = Missing Value Source: NWS Daily Summary

Daily Weather History Graph

Daily Weather History Graph

Search for Another Location

Airport or City:

Astronomy

Mar. 04, 2013 Rise Set
Actual Time 6:49 AM CST 6:12 PM CST
Civil Twilight 6:21 AM CST 6:40 PM CST
Nautical Twilight 5:48 AM CST 7:13 PM CST
Astronomical Twilight 5:15 AM CST 7:47 PM CST
Moon 1:07 AM CST (3/4) 10:47 AM CST (3/4)
Length of Visible Light 12h 19m
Length of Day
11h 22m
Waning Gibbous, 52% of the Moon is Illuminated
Mar 4
Waning Gibbous
Mar 4
Last Quarter
Mar 11
New
Mar 19
First Quarter
Mar 27
Full

Hourly Weather History & Observations

Time (CST) Temp. Windchill Dew Point Humidity Pressure Visibility Wind Dir Wind Speed Gust Speed Precip Events Conditions
12:27 AM 24.8 °F 9.6 °F 21.2 °F 86% 29.83 in 1.5 mi SE 23.0 mph 31.1 mph 0.00 in Snow Light Snow
12:33 AM 24.8 °F 9.6 °F 21.2 °F 86% 29.82 in 2.0 mi SE 23.0 mph 31.1 mph 0.00 in Snow Light Snow
12:52 AM 24.1 °F 8.3 °F 21.9 °F 91% 29.86 in 4.0 mi SE 24.2 mph 31.1 mph 0.00 in Snow Light Snow
12:56 AM 24.8 °F 9.3 °F 21.2 °F 86% 29.81 in 4.0 mi SE 24.2 mph 31.1 mph 0.00 in Snow Light Snow
1:06 AM 24.8 °F 9.0 °F 21.2 °F 86% 29.81 in 3.0 mi SE 25.3 mph - 0.01 in Snow Light Snow
1:20 AM 24.8 °F 9.3 °F 21.2 °F 86% 29.80 in 4.0 mi ESE 24.2 mph 31.1 mph 0.01 in   Overcast
1:31 AM 24.8 °F 10.0 °F 21.2 °F 86% 29.79 in 3.0 mi ESE 21.9 mph - 0.02 in Rain Light Freezing Rain
1:52 AM 25.0 °F 10.2 °F 21.9 °F 88% 29.86 in 3.0 mi SE 21.9 mph 29.9 mph 0.03 in   Overcast
2:08 AM 24.8 °F 9.3 °F 21.2 °F 86% 29.81 in 1.8 mi SE 24.2 mph - 0.00 in Snow Light Snow
2:35 AM 24.8 °F 9.6 °F 23.0 °F 93% 29.79 in 1.0 mi SE 23.0 mph 31.1 mph 0.01 in Snow Light Snow
2:52 AM 25.0 °F 10.2 °F 23.0 °F 92% 29.83 in 1.2 mi ESE 21.9 mph - 0.01 in Snow Light Snow
3:15 AM 24.8 °F 9.3 °F 21.2 °F 86% 29.76 in 2.0 mi ESE 24.2 mph 31.1 mph 0.00 in Snow Light Snow
3:26 AM 24.8 °F 9.3 °F 21.2 °F 86% 29.77 in 3.0 mi ESE 24.2 mph - 0.00 in Snow Light Snow
3:52 AM 25.0 °F 10.2 °F 21.9 °F 88% 29.81 in 5.0 mi SE 21.9 mph - 0.00 in   Overcast
5:52 AM 25.0 °F 10.6 °F 23.0 °F 92% 29.84 in 5.0 mi SE 20.7 mph - N/A   Overcast
6:52 AM 25.0 °F 12.2 °F 23.0 °F 92% 29.85 in 5.0 mi SE 16.1 mph - N/A   Overcast
7:52 AM 25.0 °F 12.2 °F 23.0 °F 92% 29.86 in 3.0 mi SE 16.1 mph - N/A   Overcast
8:34 AM 24.8 °F 11.1 °F 23.0 °F 93% 29.81 in 2.5 mi SE 18.4 mph - N/A   Overcast
8:52 AM 25.0 °F 11.7 °F 23.0 °F 92% 29.86 in 2.5 mi SE 17.3 mph - N/A   Overcast
9:25 AM 26.6 °F 14.3 °F 24.8 °F 93% 29.81 in 1.8 mi SE 16.1 mph - N/A   Overcast
9:41 AM 26.6 °F 13.4 °F 24.8 °F 93% 29.81 in 2.0 mi SE 18.4 mph - N/A   Overcast
9:52 AM 26.1 °F 13.1 °F 24.1 °F 92% 29.87 in 2.0 mi SE 17.3 mph - N/A   Overcast
9:59 AM 26.6 °F 13.8 °F 24.8 °F 93% 29.82 in 1.8 mi SE 17.3 mph - N/A   Overcast
10:11 AM 26.6 °F 13.8 °F 24.8 °F 93% 29.82 in 2.0 mi SE 17.3 mph - N/A   Overcast
10:52 AM 27.0 °F 14.7 °F 25.0 °F 92% 29.87 in 2.0 mi SE 16.1 mph - N/A   Overcast
11:52 AM 27.0 °F 14.3 °F 25.0 °F 92% 29.88 in 2.0 mi SE 17.3 mph - N/A   Overcast
12:52 PM 27.0 °F 14.3 °F 25.0 °F 92% 29.88 in 2.0 mi SE 17.3 mph - N/A   Overcast
1:52 PM 27.0 °F 15.6 °F 26.1 °F 96% 29.88 in 2.0 mi SE 13.8 mph - N/A   Overcast
2:44 PM 28.4 °F 18.5 °F 26.6 °F 93% 29.84 in 1.8 mi SE 11.5 mph - N/A   Overcast
2:52 PM 28.0 °F 18.6 °F 26.1 °F 92% 29.89 in 1.8 mi SE 10.4 mph - N/A   Overcast
3:52 PM 28.0 °F 18.1 °F 26.1 °F 92% 29.90 in 1.5 mi SE 11.5 mph - N/A   Overcast
4:13 PM 28.4 °F 18.0 °F 26.6 °F 93% 29.84 in 1.2 mi SE 12.7 mph - N/A   Overcast
4:52 PM 28.0 °F 18.1 °F 26.1 °F 92% 29.90 in 1.8 mi ESE 11.5 mph - N/A   Overcast
5:39 PM 28.4 °F 19.1 °F 26.6 °F 93% 29.86 in 2.0 mi ESE 10.4 mph - N/A   Overcast
5:52 PM 28.0 °F 18.1 °F 26.1 °F 92% 29.91 in 2.0 mi ESE 11.5 mph - N/A   Overcast
6:21 PM 28.4 °F 19.7 °F 26.6 °F 93% 29.89 in 3.0 mi SE 9.2 mph - N/A   Overcast
6:38 PM 28.4 °F 21.2 °F 26.6 °F 93% 29.91 in 2.5 mi SSE 6.9 mph - N/A   Overcast
6:52 PM 28.9 °F 25.2 °F 27.0 °F 92% 29.98 in 2.0 mi South 3.5 mph - N/A   Overcast
7:02 PM 28.4 °F 22.2 °F 26.6 °F 93% 29.93 in 1.8 mi South 5.8 mph - 0.00 in Rain Light Freezing Rain
7:32 PM 28.4 °F 21.2 °F 26.6 °F 93% 29.93 in 1.8 mi SE 6.9 mph - 0.01 in Snow Light Snow
7:52 PM 28.0 °F 21.7 °F 26.1 °F 92% 30.00 in 2.5 mi SE 5.8 mph - 0.01 in   Overcast
8:52 PM 28.0 °F 21.7 °F 26.1 °F 92% 30.01 in 2.5 mi SE 5.8 mph - 0.01 in Snow Light Snow
9:03 PM 28.4 °F 22.2 °F 26.6 °F 93% 29.96 in 1.5 mi SSE 5.8 mph - 0.00 in Snow Light Snow
9:38 PM 28.4 °F 24.6 °F 26.6 °F 93% 29.95 in 2.5 mi SSE 3.5 mph - 0.00 in   Overcast
9:52 PM 28.0 °F 24.2 °F 26.1 °F 92% 30.00 in 3.0 mi South 3.5 mph - 0.00 in   Overcast
10:29 PM 28.4 °F 24.6 °F 26.6 °F 93% 29.94 in 2.5 mi SE 3.5 mph - N/A   Overcast
10:52 PM 28.0 °F 22.8 °F 26.1 °F 92% 29.97 in 2.5 mi SE 4.6 mph - N/A   Overcast
11:52 PM 28.0 °F 22.8 °F 27.0 °F 96% 29.98 in 2.5 mi South 4.6 mph - N/A   Overcast